COSMOS 2477 (745)

Last updated on Nov. 12, 2019, 4:19 a.m. UTC

1 37868U 11064B   19315.26514762  .00000107  00000-0  00000+0 0  9993
2 37868  64.5167 154.6296 0015120 235.3240 260.0272  2.13101799 62419
UTC
Height (km)
Latitude
Longitude
Inclination
Orbital Period
UTC large
Height (km)
Speed (km/s)
/
Latitude / Longitude
Inclination (degrees)
Orbital Period (minutes)
Azimuth
Elevation
Range (km)
Doppler Factor
iOS Compass Heading
iOS Angle

Next 30 passes for location: Hong Kong

Rise time Rise Azimuth (degrees) Set time Set Azimuth (degrees) Duration Max altitude (degrees)

No matching passes for this satellites